loading
|

THOR ABLESTAR DEB, 2620

Orbit data source: Space-Track

THOR ABLESTAR DEB, 2620 is space debris in LEO originally from a launch on Thu, 05 Dec 1963 UTC launched from the Air Force Western Test Range (AFWTR). Debris objects in space refer to the collection of defunct objects orbiting the Earth. Examples of debris include non-operational satellites, rocket bodies, and fragments generated from explosions, collisions, or faulty payload assembly.

Loading next visibility...
Loading greatness...
THOR ABLESTAR DEB details
Identifier
2620, 1963-049H
Orbit
LEO
Last TLE update12 hours ago
Origin
Flag of USUSAF SSD (US)
ManufacturerUnknown
MissionSpacecraft
Bus & MotorUnknown bus, Unknown motor
MassUnknown
Launch date (UTC)
1963-12-05 (61 years ago)
Launch vehicleUnknown
Launch site
Air Force Western Test Range (AFWTR)
Object type
Payload
Rocket body
Debris
Shape & HBRUnknown
Radar Cross SectionSmall (<0.1 m²)

Expand to show TLE details & history

TLE from 12 hours ago
0 THOR ABLESTAR DEB
1 02620U 63049H   24278.49048583  .00001114  00000-0  14971-2 0  9997
2 02620  89.9084  77.9918 0017526 117.3506 305.1116 13.59282886  6055
Epoch: 2024-10-04T11:46Z
Definitive object data (Epoch: 2024-10-04T11:46:17.975Z)
Latitude62.38452°
Longitude-112.0693°
Altitude1,041.625 km
Speed7.34 km/s
True Right ascension05h 12m 39s
True Declination62° 14' 54"
Sunlit
Object was in daylight at TLE epoch
Predictive object data (real-time)
Latitude32.65544°
Longitude-112.18987°
Altitude1,041.031 km
Speed7.335 km/s
Apparent Right ascension05h 31m 18s
Apparent Declination0° 27' 02"
Sunlit
Object is in daylight
Predictive observer data (real-time)
Local Sidereal Time17:55:45
Azimuth9.559° NNE
Elevation-50.143°
Doppler factor1
Orbital elements
Apogee1,048.328 km
Perigee1,022.343 km
Semi-major axis7,413.473 km
Eccentricity0.0017526
Inclination89.9084°
RAAN77.9918°
Arg. of periapsis117.3506°
True anomaly304.9471°
Mean anomaly305.1116°
Eccentric anomaly305.02937°
Mean motion3.40025 °/min
BSTAR0.0014971
Period105.87 mins
No data available

THOR ABLESTAR DEB Visibility forecast

Observer location: 39.9160978°, -105.1181434

THOR ABLESTAR DEB is not visible in the next 10 days
Span
Click to sort rows by Start time (UTC) header in descending order
Start Az.
Max El. time (UTC)
Max El. Az.
Max El.
End time (UTC)
End Az.